Location: Gaast
(52.9002°N, 5.8891°E)
Time: 07:03:58
(UTC+00:00)

Cosmos 2227 Rocket - Pass Details

Date: 18 November 2025
Orbit: 839 x 842 km, 71.0° (Epoch: 11 December)

Event Time Altitude Azimuth Distance (km) Brightness Sun altitude
Rises 19:15:31 0° 325° (NW) 3,405 5.9 -32.4°
Reaches altitude 10° 19:18:43 10° 343° (NNW) 2,468 4.9 -32.9°
Enters shadow 19:20:19 15° 358° (N) 2,121 4.4 -33.1°
